Hourly Data Report for November 22, 2017

All times are specified in Local Standard Time (LST). Add 1 hour to adjust for Daylight Saving Time where and when it is observed.

GREENWOOD A
NOVA SCOTIA

44°59'00.000" N
64°55'00.000" W
28.00 m
8202000
71397
YZX

Download Data

Hourly Data (November 2017)
Hourly Data Report for November 22, 2017
Temp Definition
°C
Dew Point Temp Definition
°C
Rel Hum Definition
%
Wind Dir Definition
10's deg

Wind Spd Definition
km/h
Visibility Definition
km
Stn Press Definition
kPa
Hmdx Definition


Wind Chill Definition


Weather Definition


TIME
00:00 7.7 5.5 86 23 17 24.1 101.47     Mostly Cloudy
01:00 5.7 4.2 90 26 11 24.1 101.47     Mainly Clear
02:00 9.0 6.5 84 20 15 24.1 101.46     Mainly Clear
03:00 8.4 6.4 87 26 6 24.1 101.46     Mainly Clear
04:00 4.3 3.4 94 27 4 24.1 101.47     Mainly Clear
05:00 4.0 3.6 97 2 7 16.1 101.45     Mainly Clear
06:00 3.3 3.1 99 6 6 12.9 101.45     Mainly Clear
07:00 1.4 0.9 96   0 9.7 101.49     Fog
08:00 0.8 0.6 99 12 4 1.2 101.52     Fog
09:00 3.4 3.0 97   0 12.9 101.52     Mostly Cloudy
10:00 6.5 4.2 85 1 4 19.3 101.49     Mostly Cloudy
11:00 10.6 8.6 87 24 6 19.3 101.45     Mostly Cloudy
12:00 12.4 9.4 82 15 13 19.3 101.30     Mostly Cloudy
13:00 13.5 10.0 79   0 19.3 101.20     Mostly Cloudy
14:00 14.2 10.6 79 17 7 19.3 101.11     Cloudy
15:00 13.7 11.1 84 17 6 19.3 100.99     Rain Showers
16:00 13.3 11.1 87 7 6 24.1 100.91     Cloudy
17:00 13.4 11.5 88 16 15 24.1 100.74     Cloudy
18:00 13.7 11.5 87 15 19 24.1 100.56     Cloudy
19:00 13.9 11.9 88 14 20 24.1 100.40     Cloudy
20:00 13.3 12.3 94 17 17 8.0 100.28     Rain Showers,Fog
21:00 13.4 12.4 94 17 9 8.0 100.07     Rain Showers,Fog
22:00 12.8 12.1 96 6 9 4.8 99.79     Rain,Fog
23:00 13.0 12.5 97 12 7 3.2 99.58     Moderate Rain,Fog

Notes on Data Quality.

Legend

  • E = Estimated
  • M = Missing
  • NA = Not Available
  • ‡ = Partner data that is not subject to review by the National Climate Archives
Date modified: